Regional Weather Roundup
Issued by NWS Kansas City/Pleasant Hill, MO

Home | Current Version | Previous Version | Graphics & Text | Print | Product List | Glossary Off
Versions: 1 2 3 4 5 6 7 8 9 10 11 12 13 14 15 16 17 18 19 20 21 22 23 24 25 26 27

000
ASUS43 KEAX 212210
RWREAX

WEATHER ROUNDUP FOR EASTERN KANSAS AND NORTHWEST MISSOURI
NATIONAL WEATHER SERVICE KANSAS CITY/PLEASANT HILL MO
500 PM CDT MON AUG 21 2017

KSZ040-057-103>105-MOZ028-029-037-043-212300-
...KANSAS CITY METROPOLITAN AREA...

CITY           SKY/WX    TMP DP  RH WIND       PRES   REMARKS
K.C. INTL      CLOUDY    77  71  82 SE9       29.98S
K.C. DOWNTOWN  CLOUDY    75  73  93 E7        29.98F
LEES SUMMIT    MOSUNNY   77  72  84 E10       30.02F
OLATHE - IXD   SUNNY     89  75  63 S13       30.00R HX  99
OLATHE - OJC   MOSUNNY   87  77  72 E7        30.00S HX  99
LAWRENCE       MOSUNNY   90  76  63 SE13      29.95F HX 101

$$

MOZ001>008-011>017-020>025-030>033-038>040-044>046-053-054-212300-
...NORTHERN AND CENTRAL MISSOURI...

CITY           SKY/WX    TMP DP  RH WIND       PRES   REMARKS
ST. JOSEPH     CLOUDY    80  74  81 SE10      29.98R
MOSBY          TSTM      70  70 100 S3        30.01R
WARRENSBURG    PTSUNNY   79  72  78 N12G17    30.02R
WHITEMAN AFB   PTSUNNY   89  79  73 S13       30.00F HX 105
CLINTON        SUNNY     90  75  62 S8        30.02S HX 100
SEDALIA        CLOUDY    89  77  67 S6        30.04S HX 101
WARSAW         NOT AVBL
CHILLICOTHE      N/A     72  71  97 S9        30.01F
KIRKSVILLE     CLOUDY    75  32  20 SW10      30.03R

$$

MOZ041-047>049-056>058-063>065-088>090-097-212300-
...EASTERN AND SOUTHERN MISSOURI...

CITY           SKY/WX    TMP DP  RH WIND       PRES   REMARKS
ST. LOUIS INTL PTSUNNY   87  75  67 E7        30.02F HX  96
SPIRIT OF STL  MOSUNNY   94  74  52 W8        30.00F HX 104
COLUMBIA       PTSUNNY   88  73  61 S10       30.03S HX  95
JEFFERSON CITY SUNNY     91  74  57 SW8       30.01R HX 100
ROLLA          MOSUNNY   88  73  61 SW7       30.06S HX  95
OSAGE BEACH    MOSUNNY   90  73  57 SW10      30.04  HX  98
SPRINGFIELD    MOSUNNY   88  74  63 S9        30.05F HX  96
BRANSON        MOSUNNY   90  72  55 S6        30.08F HX  96
JOPLIN         SUNNY     91  75  59 S13       30.03F HX 101
WEST PLAINS    SUNNY     88  71  57 S12       30.09F HX  94

$$

IAZ060-094-KSZ022-034>040-054-083-096-NEZ052-066-093-212300-
...KANSAS...SOUTHEAST NEBRASKA AND IOWA...

CITY           SKY/WX    TMP DP  RH WIND       PRES   REMARKS
TOPEKA         PTSUNNY   91  76  61 S10       29.94S HX 103
MANHATTAN      MOSUNNY   93  75  55 SW13      29.93F HX 104
EMPORIA        MOSUNNY   90  72  55 S17       29.97R HX  97
CHANUTE        MOSUNNY   90  75  61 S15       30.00S HX 100
WICHITA        PTSUNNY   93  68  43 S21G26    29.95F HX  97
OMAHA          PTSUNNY   82  72  71 S5        29.94R
LINCOLN        MOSUNNY   83  71  67 S10       29.93F
FALLS CITY     CLOUDY    84  74  71 S9        29.95R HX  91
LAMONI         CLOUDY    76  69  79 S15G26    29.99R
DES MOINES     CLOUDY    85  71  63 SW12      29.93S HX  90

$$





USA.gov is the U.S. government's official web portal to all federal, state and local government web resources and services.